Location: Ernsee
(50.8780°N, 12.0389°E)
Time: 21:23:25
(UTC+00:00)

ATLAS 3B R/B - Pass Details

Date: 20 January 2020
Orbit: 1020 x 1175 km, 63.8° (Epoch: 20 February)

Event Time Altitude Azimuth Distance (km) Brightness Sun altitude
Exits shadow 05:53:56 10° 313° (NW) 2,825 4.4 -10.8°
Maximum altitude 06:00:28 63° 235° (SW) 1,183 2.8 -9.8°
Drops below altitude 10° 06:07:18 10° 156° (SSE) 2,941 5.7 -8.8°
Sets 06:10:02 0° 153° (SSE) 3,918 6.5 -8.4°
